Big Bear City, CA

7:01 PM PST on November 20, 2017 (GMT -0800)
Big Bear City

Weather History for KL35 - July, 2013

Change the Weather History Date:

Sunday, July 21, 2013

  Actual Average (KBUO) Record (KBUO)
Temperature  
Mean Temperature 62 °F -  
Max Temperature 69 °F 90 °F 100 °F (2000)
Min Temperature 55 °F 59 °F 53 °F (1999)
Degree Days  
Heating Degree Days 3    
Growing Degree Days 12 (Base 50)    
Moisture  
Dew Point 54 °F    
Average Humidity 78    
Maximum Humidity 94    
Minimum Humidity 49    
Precipitation  
Precipitation 0.59 in - - ()
Sea Level Pressure  
Sea Level Pressure 30.20 in    
Wind  
Wind Speed 3 mph (West)    
Max Wind Speed 18 mph    
Max Gust Speed 26 mph    
Visibility 10 miles    
Events Rain    
Averages and records for this station are not official NWS values.
T = Trace of Precipitation, MM = Missing Value Source: NWS Daily Summary

Daily Weather History Graph

Daily Weather History Graph

Search for Another Location

Airport or City:

Trip Planner

Search our weather history database for the weather conditions in past years. The results will help you decide how hot, cold, wet, or windy it might be!

Date:

Astronomy

Jul. 21, 2013 Rise Set
Actual Time 5:50 AM PDT 7:56 PM PDT
Civil Twilight 5:22 AM PDT 8:24 PM PDT
Nautical Twilight 4:48 AM PDT 8:59 PM PDT
Astronomical Twilight 4:11 AM PDT 9:35 PM PDT
Moon 7:00 PM PDT 4:40 AM PDT
Length of Visible Light 15h 02m
Length of Day
14h 05m
Waxing Gibbous, 99% of the Moon is Illuminated
Jul 21
Waxing Gibbous
Jul 22
Full
Jul 29
Last Quarter
Aug 6
New
Aug 14
First Quarter

Hourly Weather History & Observations

Time (PDT) Temp. Dew Point Humidity Pressure Visibility Wind Dir Wind Speed Gust Speed Precip Events Conditions
12:15 AM 60.8 °F 50.0 °F 68% 30.20 in 10.0 mi Calm Calm - N/A   Scattered Clouds
12:35 AM 60.8 °F 50.0 °F 68% 30.20 in 10.0 mi Calm Calm - N/A   Scattered Clouds
12:55 AM 60.8 °F 50.0 °F 68% 30.20 in 10.0 mi Calm Calm - N/A   Clear
1:15 AM 60.8 °F 50.0 °F 68% 30.20 in 10.0 mi SE 3.5 mph - N/A   Mostly Cloudy
1:35 AM 60.8 °F 50.0 °F 68% 30.20 in 10.0 mi Calm Calm - N/A   Mostly Cloudy
1:55 AM 62.6 °F 50.0 °F 63% 30.19 in 10.0 mi Calm Calm - N/A   Mostly Cloudy
2:15 AM 59.0 °F 57.2 °F 94% 30.23 in 4.0 mi NE 16.1 mph 25.3 mph N/A   Overcast
2:35 AM 59.0 °F 55.4 °F 88% 30.23 in 2.5 mi NNE 15.0 mph 26.5 mph 0.01 in Rain Light Rain
2:55 AM 59.0 °F 55.4 °F 88% 30.24 in 2.5 mi ENE 18.4 mph 25.3 mph 0.25 in Rain Heavy Rain
3:15 AM 57.2 °F 55.4 °F 94% 30.21 in 4.0 mi East 5.8 mph - 0.26 in Rain Rain
3:35 AM 59.0 °F 55.4 °F 88% 30.21 in 10.0 mi South 3.5 mph - 0.27 in Rain Light Rain
3:55 AM 59.0 °F 53.6 °F 82% 30.22 in 10.0 mi Calm Calm - 0.29 in Rain Rain
4:15 AM 57.2 °F 53.6 °F 88% 30.19 in 7.0 mi NE 3.5 mph - 0.03 in Rain Rain
4:35 AM 55.4 °F 53.6 °F 94% 30.17 in 10.0 mi Calm Calm - 0.04 in Rain Light Rain
4:55 AM 55.4 °F 53.6 °F 94% 30.16 in 10.0 mi ENE 3.5 mph - 0.04 in Rain Light Rain
5:15 AM 55.4 °F 51.8 °F 88% 30.16 in 10.0 mi Calm Calm - N/A   Scattered Clouds
5:35 AM 55.4 °F 53.6 °F 94% 30.16 in 10.0 mi Calm Calm - N/A Rain Light Rain
5:55 AM 55.4 °F 53.6 °F 94% 30.16 in 10.0 mi Calm Calm - 0.01 in   Scattered Clouds
6:15 AM 55.4 °F 53.6 °F 94% 30.16 in 10.0 mi Calm Calm - N/A   Scattered Clouds
6:35 AM 55.4 °F 53.6 °F 94% 30.16 in 10.0 mi Calm Calm - N/A   Clear
6:55 AM 55.4 °F 53.6 °F 94% 30.16 in 10.0 mi Calm Calm - N/A   Scattered Clouds
7:15 AM 55.4 °F 53.6 °F 94% 30.16 in 10.0 mi Calm Calm - N/A   Mostly Cloudy
7:35 AM 57.2 °F 53.6 °F 88% 30.17 in 10.0 mi Calm Calm - N/A   Scattered Clouds
7:55 AM 59.0 °F 53.6 °F 82% 30.17 in 10.0 mi Calm Calm - N/A   Mostly Cloudy
8:15 AM 59.0 °F 55.4 °F 88% 30.19 in 10.0 mi Calm Calm - N/A   Overcast
8:35 AM 60.8 °F 55.4 °F 82% 30.20 in 10.0 mi Calm Calm - N/A   Overcast
8:55 AM 60.8 °F 55.4 °F 82% 30.20 in 10.0 mi East 3.5 mph - N/A   Overcast
9:15 AM 60.8 °F 55.4 °F 82% 30.21 in 10.0 mi Calm Calm - N/A   Overcast
9:35 AM 62.6 °F 53.6 °F 72% 30.21 in 10.0 mi Calm Calm - N/A   Overcast
9:55 AM 62.6 °F 51.8 °F 68% 30.21 in 10.0 mi Calm Calm - N/A   Mostly Cloudy
10:15 AM 64.4 °F 51.8 °F 64% 30.21 in 10.0 mi Calm Calm - N/A   Mostly Cloudy
11:15 AM 64.4 °F 51.8 °F 64% 30.22 in 10.0 mi Calm Calm - N/A   Overcast
11:35 AM 66.2 °F 51.8 °F 60% 30.21 in 10.0 mi Calm Calm - N/A   Mostly Cloudy
11:55 AM 68.0 °F 48.2 °F 49% 30.21 in 10.0 mi Calm Calm - N/A   Scattered Clouds
12:15 PM 68.0 °F 50.0 °F 52% 30.21 in 10.0 mi East 3.5 mph - N/A   Mostly Cloudy
12:35 PM 69.8 °F 50.0 °F 49% 30.21 in 10.0 mi ENE 6.9 mph - N/A   Mostly Cloudy
12:55 PM 69.8 °F 51.8 °F 53% 30.21 in 10.0 mi ENE 8.1 mph - N/A   Scattered Clouds
1:15 PM 68.0 °F 48.2 °F 49% 30.21 in 10.0 mi NE 5.8 mph - N/A   Mostly Cloudy
1:35 PM 68.0 °F 50.0 °F 52% 30.21 in 10.0 mi NNE 4.6 mph - N/A Rain Light Rain
1:55 PM 68.0 °F 50.0 °F 52% 30.20 in 10.0 mi Calm Calm - N/A   Scattered Clouds
2:15 PM 68.0 °F 53.6 °F 60% 30.20 in 10.0 mi Calm Calm - N/A   Mostly Cloudy
2:35 PM 66.2 °F 53.6 °F 64% 30.20 in 10.0 mi SW 4.6 mph - N/A   Overcast
2:55 PM 66.2 °F 53.6 °F 64% 30.20 in 10.0 mi West 6.9 mph - N/A   Overcast
3:15 PM 64.4 °F 53.6 °F 68% 30.21 in 10.0 mi West 6.9 mph - N/A   Overcast
3:35 PM 64.4 °F 55.4 °F 73% 30.21 in 10.0 mi West 6.9 mph - N/A   Overcast
3:55 PM 64.4 °F 55.4 °F 73% 30.20 in 10.0 mi WSW 5.8 mph - N/A   Overcast
4:15 PM 64.4 °F 55.4 °F 73% 30.20 in 10.0 mi WSW 5.8 mph - N/A   Overcast
4:35 PM 62.6 °F 55.4 °F 77% 30.20 in 10.0 mi West 8.1 mph - N/A   Overcast
4:55 PM 62.6 °F 55.4 °F 77% 30.19 in 10.0 mi Calm Calm - N/A   Drizzle
5:15 PM 60.8 °F 55.4 °F 82% 30.20 in 10.0 mi South 5.8 mph - N/A Rain Light Rain
5:35 PM 60.8 °F 55.4 °F 82% 30.19 in 10.0 mi SSW 3.5 mph - N/A   Light Drizzle
5:55 PM 60.8 °F 55.4 °F 82% 30.19 in 10.0 mi West 5.8 mph - N/A   Scattered Clouds
6:15 PM 60.8 °F 55.4 °F 82% 30.20 in 10.0 mi West 6.9 mph - N/A   Clear
6:35 PM 60.8 °F 55.4 °F 82% 30.20 in 10.0 mi West 6.9 mph - N/A   Clear
6:55 PM 60.8 °F 55.4 °F 82% 30.19 in 10.0 mi West 5.8 mph - N/A   Clear
7:15 PM 60.8 °F 55.4 °F 82% 30.20 in 10.0 mi West 3.5 mph - N/A   Clear
7:35 PM 60.8 °F 55.4 °F 82% 30.20 in 10.0 mi WSW 3.5 mph - N/A   Clear
7:55 PM 60.8 °F 55.4 °F 82% 30.20 in 10.0 mi West 3.5 mph - N/A   Scattered Clouds
8:15 PM 60.8 °F 55.4 °F 82% 30.21 in 10.0 mi WSW 3.5 mph - N/A   Scattered Clouds
8:35 PM 60.8 °F 53.6 °F 77% 30.22 in 10.0 mi Calm Calm - N/A   Scattered Clouds
8:55 PM 60.8 °F 55.4 °F 82% 30.22 in 10.0 mi Calm Calm - N/A   Scattered Clouds
9:15 PM 60.8 °F 55.4 °F 82% 30.23 in 10.0 mi Calm Calm - N/A   Scattered Clouds
9:35 PM 59.0 °F 55.4 °F 88% 30.25 in 10.0 mi Calm Calm - N/A   Overcast
9:55 PM 60.8 °F 55.4 °F 82% 30.25 in 10.0 mi Calm Calm - N/A   Overcast
10:15 PM 59.0 °F 55.4 °F 88% 30.25 in 10.0 mi Calm Calm - N/A   Overcast
10:35 PM 59.0 °F 55.4 °F 88% 30.25 in 10.0 mi Calm Calm - N/A   Overcast
10:55 PM 59.0 °F 55.4 °F 88% 30.25 in 10.0 mi Calm Calm - N/A   Overcast
11:15 PM 59.0 °F 55.4 °F 88% 30.25 in 10.0 mi Calm Calm - N/A   Overcast
11:35 PM 59.0 °F 55.4 °F 88% 30.25 in 10.0 mi Calm Calm - N/A   Overcast
11:55 PM 60.8 °F 55.4 °F 82% 30.25 in 10.0 mi Calm Calm - N/A   Overcast